Weather in Rjaksa

Russia / Tambov Oblast     52°08′11″N   42°01′30″E
temp.,
°C
wind,
m/s
gust,
m/s
humid.,
%
clouds,
%
prec.,
mm/h
press.,
hPa
HPBL,
m
24 july, sat
sat2400:00+17nw3559100 0.0 1009101
03:00+15nw36705 0.0 101099
06:00+16nw377615 0.0 1010242
09:00+20nw46571 0.0 10111018
12:00+22nw5644100 0.0 10112266
15:00+24nnw563738 0.0 10122484
18:00+20nnw375299 0.0 1013170
21:00+18nnw2254100 0.0 101529
25 july, sun
sun2500:00+16ne236338 0.0 101745
03:00+14ne337249 0.0 101834
06:00+15ne2470100 0.0 1019132
09:00+18ene2362100 0.0 1020288
12:00+20ne2357100 0.0 1021582
15:00+23ne224522 0.0 10211834
18:00+20ne2258100 0.0 102139
21:00+18nne225660 0.0 102221
26 july, mon
mon2600:00+16ne116524 0.0 102411
03:00+15ene22696 0.0 102413
06:00+16ne22695 0.0 102545
09:00+21ne22515 0.0 1025640
12:00+24nne013615 0.0 10242386
15:00+25nw11328 0.0 10232514
18:00+23ene454729 0.0 1023420
21:00+17ese22590 0.0 102416
27 july, tue
tue2700:00+15se11602 0.0 102410
03:00+15ssw006118 0.0 102410
06:00+16nw226159 0.0 102441
09:00+21nnw224712 0.0 1024405
12:00+26nnw12352 0.0 10232332
15:00+26wnw233220 0.0 10222508
18:00+26w224042 0.0 1021321
21:00+22wsw224398 0.0 102126
28 july, wed
wed2800:00+20w3547100 0.0 1021100
03:00+18nw335433 0.0 102154
06:00+18nw23645 0.0 102168
09:00+24wnw22455 0.0 1020539
12:00+27wsw233539 0.0 10192722
15:00+28wsw333353 0.0 10172497
18:00+26sw454362 0.0 1016327
21:00+21sw33484 0.0 101626